EHI
0 0 0 0 0 0 0 0 0 0 0 0 0 0 0 0 0 0 0 0 0 0 0 0 0 0 0 0 0 0 0 0 0 0 0 0 0 0 0 0 0 0 0 0
0 0 0 0 0 0 0 0 0 0 0 0 0 0 0 0 0 0 0 0 0 0 0 0 0 0 0 0 0 0 0 0 0 0 0 0 0 0 0 0 0 0 0 0
0 0 0 0 0 0 0 0 0 0 0 0 0 0 0 0 0 0 0 0 0 0 0 0 0 0 0 0 0 0 0 0 0 0 0 0 0 0 0 0 0 0 0 0
0 0 0 0 0 0 0 0 0 0 0 0 0 0 0 0 0 0 0 0 0 0 0 0 0 0 0 0 0 0 0 0 0 0 0 0 0 0 0 0 0 0 0 0
0 0 0 0 0 0 0 0 0 0 0 0 0 0 0 0 0 0 0 0 0 0 0 0 0 0 0 0 0 0 0 0 0 0 0 0 0 0 0 0 0 0 0 0
0 0 0 0 0 0 0 0 0 0 0 0 0 0 0 0 0 0 0 0 0 0 0 0 0 0 0 0 0 0 0 0 0 0 0 0 0 0 0 0 0 0 0 0
0 0 0 0 0 0 0 0 0 0 0 0 0 0 0 0 0 0 0 0 0 0 0 0 0 0 0 0 0 0 0 0 0 0 0 0 0 0 0 0 0 0 0 0
0 0 0 0 0 0 0 0 0 0 0 0 0 0 0 0 0 0 0 0 0 0 0 0 0 0 0 0 0 0 0 0 0 0 0 0 0 0 0 0 0 0 0 0
0 0 0 0 0 0 0 0 0 0 0 0 0 0 0 0 0 0 0 0 0 0 0 0 0 0 0 0 0 0 0 0 0 0 0 0 0 0 0 0 0 0 0 0
0 0 0 0 0 0 0 0 0 0 0 0 0 0 0 0 0 0 0 0 0 0 0 0 0 0 0 0 0 0 0 0 0 0 0 0 0 0 0 0 0 0 0 0
0 0 0 0 0 0 0 0 0 0 0 0 0 0 0 0 0 0 0 0 0 0 0 0 0 0 0 0 0 0 0 0 0 0 0 0 0 0 0 0 0 0 0 0
0 0 0 0 0 0 0 0 0 0 0 0 0 0 0 0 0 0 0 0 0 0 0 0 0 0 0 0 0 0 0 0 0 0 0 0 0 0 0 0 0 0 0 0
0 0 0 0 0 0 0 0 0 0 0 0 0 0 0 0 0 0 0 0 0 0 0 0 0 0 0 0 0 0 0 0 0 0 0 0 0 0 0 0 0 0 0 0
0 0 0 0 0 0 0 0 0 0 0 0 0 0 0 0 0 0 0 0 0 0 0 0 0 0 0 0 0 0 0 0 0 0 0 0 0 0 0 0 0 0 0 0
0 0 0 0 0 0 0 0 0 0 0 0 0 0 0 0 0 0 0 0 0 0 0 0 0 0 0 0 0 0 0 0 0 0 0 0 0 0 0 0 0 0 0 0
0 0 0 0 0 0 0 0 0 0 0 0 0 0 0 0 0 0 0 0 0 0 0 0 0 0 0 0 0 0 0 0 0 0 0 0 0 0 0 0 0 0 0 0
0 0 0 0 0 0 0 0 0 0 0 0 0 0 0 0 0 0 0 0 0 0 0 0 0 0 0 0 0 0 0 0 0 0 0 0 0 0 0 0 0 0 0 0
0 0 0 0 0 0 0 0 0 0 0 0 0 0 0 0 0 0 0 0 0 0 0 0 0 0 0 0 0 0 0 0 0 0 0 0 0 0 0 0 0 0 0 0
0 0 0 0 0 0 0 0 0 0 0 0 0 0 0 0 0 0 0 0 0 0 0 0 0 0 0 0 0 0 0 0 0 0 0 0 0 0 0 0 0 0 0 0
0 0 0 0 0 0 0 0 0 0 0 0 0 0 0 0 0 0 0 0 0 0 0 0 0 0 0 0 0 0 0 0 0 0 0 0 0 0 0 0 0 0 0 0
0 0 0 0 0 0 0 0 0 0 0 0 0 0 0 0 0 0 0 0 0 0 0 0 0 0 0 0 0 0 0 0 0 0 0 0 0 0 0 0 0 0 0 0
0 0 0 0 0 0 0 0 0 0 0 0 0 0 0 0 0 0 0 0 0 0 0 0 0 0 0 0 0 0 0 0 0 0 0 0 0 0 0 0 0 0 0 0
0 0 0 0 0 0 0 0 0 0 0 0 0 0 0 0 0 0 0 0 0 0 0 0 0 0 0 0 0 0 0 0 0 0 0 0 0 0 0 0 0 0 0 0
0 0 0 0 0 0 0 0 0 0 0 0 0 0 0 0 0 0 0 0 0 0 0 0 0 0 0 0 0 0 0 0 0 0 0 0 0 0 0 0 0 0 0 0
0 0 0 0 0 0 0 0 0 0 0 0 0 0 0 0 0 0 0 0 0 0 0 0 0 0 0 0 0 0 0 0 0 0 0 0 0 0 0 0 0 0 0 0
0 0 0 0 0 0 0 0 0 0 0 0 0 0 0 0 0 0 0 0 0 0 0 0 0 0 0 0 0 0 0 0 0 0 0 0 0 0 0 0 0 0 0 0
0 0 0 0 0 0 0 0 0 0 0 0 0 0 0 0 0 0 0 0 0 0 0 0 0 0 0 0 0 0 0 0 0 0 0 0 0 0 0 0 0 0 0 0
Wind_Speed
7 7 5 6 7 7 8 8 6 6 4 3 2 1 1 1 2 2 2 1 1 1 1 2 2 3 3 2 3 3 3 3 3 3 3 3 3 3 3 2 2 2 2 1
6 5 5 7 6 8 8 8 9 7 5 3 3 3 2 2 2 2 1 1 1 1 1 2 2 2 3 2 3 3 3 3 3 3 3 3 3 3 2 2 2 2 2 2
4 3 4 6 5 6 5 3 4 6 4 3 4 4 3 2 2 3 2 3 2 2 1 1 2 2 3 3 3 3 3 3 3 3 3 3 3 3 2 2 2 2 2 1
3 2 6 3 2 1 2 0 1 1 3 4 3 3 4 5 4 4 4 3 3 2 2 2 2 2 2 3 3 3 3 3 3 3 2 2 2 2 2 2 2 2 2 2
2 4 5 0 3 2 1 1 4 3 4 5 4 2 4 7 6 4 3 3 2 2 2 2 2 2 3 3 2 3 2 2 2 2 2 2 2 2 1 1 1 1 1 2
3 4 4 1 4 4 1 0 6 5 4 4 4 2 2 6 6 6 5 4 3 3 2 2 2 3 3 2 2 2 2 1 1 2 2 2 1 1 1 1 1 1 1 1
4 4 3 3 5 3 1 2 5 5 5 4 3 2 2 4 5 5 5 5 4 3 2 2 2 3 3 2 2 2 2 1 1 1 1 2 1 1 1 1 1 1 1 1
2 4 3 5 4 2 1 3 4 5 5 4 3 3 3 4 4 5 4 4 4 3 3 3 3 3 3 2 2 2 2 2 1 1 1 1 1 1 1 1 1 1 1 1
2 2 1 3 3 3 3 3 4 4 4 3 2 3 4 4 4 5 5 4 4 3 3 3 3 3 2 2 2 2 2 2 1 1 1 1 1 1 1 1 1 1 1 1
1 1 2 3 5 6 6 4 4 4 4 3 3 3 4 4 4 5 5 5 4 4 3 3 3 3 2 2 2 2 2 1 1 1 1 1 1 0 0 1 1 1 1 1
2 2 2 3 5 5 5 5 5 5 4 4 3 3 3 4 4 4 5 4 4 3 3 3 3 3 2 2 2 2 1 1 1 1 1 1 1 1 1 1 2 2 1 1
2 2 2 2 3 4 4 5 5 4 5 4 4 3 3 3 3 4 4 4 4 4 3 3 3 3 2 2 2 1 1 1 1 1 1 0 0 1 2 2 3 3 3 3
1 2 2 2 3 4 4 4 4 4 3 4 4 3 3 3 3 3 4 4 4 4 3 3 3 3 3 2 2 1 1 1 1 1 1 0 0 0 1 2 3 3 3 4
2 2 2 2 3 4 4 4 4 3 3 3 3 3 3 3 3 4 4 4 4 3 3 3 3 3 3 2 2 1 1 1 1 1 1 0 1 0 0 0 1 2 3 4
3 2 1 2 2 3 3 3 3 3 3 4 3 3 3 3 3 4 4 4 4 3 3 3 3 3 3 3 2 2 1 1 1 1 1 1 1 0 0 1 1 1 2 2
3 3 2 2 3 3 3 2 2 2 3 3 3 3 3 2 3 3 3 3 3 3 3 3 3 3 3 3 2 2 1 2 2 1 1 1 1 1 1 1 1 1 1 2
2 2 2 3 3 3 3 2 2 2 2 2 3 3 3 3 3 3 3 3 2 3 3 3 3 3 3 2 2 1 1 2 3 2 1 1 1 1 1 1 1 1 1 3
1 1 1 2 2 2 3 3 2 2 2 2 2 2 2 2 3 3 4 4 3 3 4 3 3 3 3 2 2 1 1 1 1 1 1 1 1 1 1 1 1 2 2 2
2 2 2 2 1 1 2 2 2 2 2 2 2 2 2 2 2 3 3 3 4 4 4 3 5 4 3 3 3 1 1 1 2 1 1 2 2 1 1 1 2 2 2 2
3 3 2 2 2 2 2 2 2 2 2 2 2 2 3 3 3 3 3 3 3 3 3 4 4 3 3 3 4 1 1 1 2 2 2 1 1 2 2 2 2 2 2 2
3 3 3 2 2 2 2 2 2 2 2 2 2 2 3 3 3 3 3 4 4 3 3 5 3 2 3 3 4 1 1 2 2 2 2 2 2 2 2 2 2 3 3 3
2 2 2 2 2 3 3 2 2 2 2 2 3 3 3 4 4 3 3 3 4 6 4 3 3 4 5 5 1 1 1 2 2 2 2 2 2 2 3 3 3 3 3 3
2 2 2 2 2 2 3 3 2 2 2 2 3 3 3 3 3 3 4 3 3 6 5 3 5 7 8 3 1 1 2 2 2 2 2 2 2 3 3 3 3 3 3 3
1 2 2 2 2 2 3 3 3 2 2 2 2 3 3 3 3 2 3 7 8 8 4 6 9 9 7 2 1 1 2 2 2 2 2 3 3 3 3 3 3 3 4 4
1 1 1 2 2 2 2 3 3 3 3 3 3 3 3 2 3 4 4 4 8 8 5 7 10 9 5 2 2 2 2 2 3 3 3 3 3 3 3 3 4 4 4 4
1 1 1 1 1 2 2 2 2 3 3 4 4 3 3 3 3 3 3 4 5 7 5 4 4 6 3 3 2 2 3 3 4 3 3 3 4 4 4 4 5 4 4 5
1 1 1 2 2 2 2 2 2 3 3 3 4 4 4 4 4 4 4 4 4 4 4 4 3 3 3 3 3 3 3 3 3 3 3 3 4 4 4 5 5 5 5 5
Wind_Direction
275 282 272 261 254 241 227 230 239 260 268 282 291 309 338 51 76 83 82 69 69 85 115 118 121 128 126 128 132 131 132 139 143 138 138 138 140 141 141 145 152 154 154 168
279 270 268 269 259 248 245 246 253 270 277 342 8 27 30 43 48 37 40 40 42 53 86 115 123 125 124 125 127 129 134 136 135 137 137 140 145 145 141 145 151 156 173 183
271 303 306 263 246 229 227 240 241 256 279 344 354 2 11 28 36 20 19 15 14 20 58 94 120 131 138 137 127 130 135 136 139 138 139 147 151 146 149 158 159 166 180 192
274 292 243 234 12 18 180 137 14 8 6 9 3 357 35 41 34 22 17 11 3 5 26 46 77 104 117 119 122 127 132 137 137 135 137 144 147 150 159 158 171 187 196 211
231 248 261 291 8 1 277 291 16 1 3 10 357 23 51 29 25 17 11 4 6 10 28 44 62 92 100 101 107 112 118 126 133 137 137 139 149 159 158 154 183 212 206 209
232 243 248 331 341 328 345 252 13 9 8 6 9 14 347 1 9 11 13 13 18 20 36 46 51 84 96 98 102 110 113 110 118 129 141 150 152 155 148 163 198 230 239 226
238 245 261 1 327 347 112 287 348 4 10 14 17 356 332 354 6 12 14 13 19 26 35 34 50 79 91 88 88 83 83 90 99 112 129 139 130 135 151 176 182 229 248 255
226 236 258 10 19 37 329 346 3 10 16 22 23 15 10 10 7 11 15 16 16 27 32 34 52 74 81 70 62 74 78 79 78 84 106 116 125 144 170 177 188 215 233 268
204 218 32 45 50 28 18 8 5 9 10 22 13 7 10 11 11 11 13 13 18 30 37 35 42 62 76 51 62 72 69 61 60 49 46 99 147 170 175 186 199 227 224 249
307 333 29 40 42 27 25 21 8 9 8 16 14 11 9 9 10 11 12 12 17 25 36 30 33 39 53 51 63 77 69 47 48 60 48 38 5 237 193 204 218 236 238 245
281 323 20 42 24 11 13 17 16 14 17 22 28 12 6 4 5 5 5 8 12 17 25 22 27 34 30 37 65 70 59 42 26 26 52 32 350 321 282 239 242 248 230 236
275 325 313 317 351 10 12 10 10 11 15 22 25 12 7 4 3 2 359 360 6 13 16 12 15 19 24 36 62 70 41 24 15 15 13 15 13 357 345 322 304 297 290 283
282 344 0 332 8 16 11 9 11 14 15 9 14 18 11 5 4 3 358 357 359 359 3 6 6 6 8 27 33 35 25 347 333 335 325 312 307 326 345 348 333 319 305 297
11 31 2 3 1 358 7 15 18 19 22 23 20 17 12 8 5 0 352 349 350 356 0 6 10 2 358 14 21 20 10 340 345 341 332 317 295 283 264 297 324 327 314 310
13 20 338 343 1 0 6 11 17 14 18 19 22 17 11 3 354 347 343 343 351 360 1 7 6 354 355 2 9 9 354 342 348 348 336 319 310 300 290 291 295 305 320 317
357 8 16 15 3 357 3 5 8 359 2 4 8 6 359 352 345 341 343 351 1 356 348 350 346 342 349 356 2 359 346 342 345 341 332 318 302 289 288 281 286 294 302 311
11 346 340 338 343 348 351 352 357 350 353 353 349 350 353 353 352 346 343 348 351 340 335 334 335 341 346 351 352 342 344 340 337 338 330 315 309 302 298 290 286 292 297 296
350 322 310 301 310 328 338 351 0 359 348 337 346 354 353 348 338 334 337 343 345 343 337 337 342 342 343 345 341 334 344 335 322 315 316 304 301 289 283 283 286 292 297 297
5 0 356 357 355 347 336 335 342 351 346 347 353 344 332 327 324 326 337 345 339 330 327 330 337 344 338 328 330 330 331 315 310 305 298 291 307 305 293 288 287 287 290 296
8 11 15 17 18 12 346 339 348 350 344 348 356 351 343 335 331 330 332 325 306 296 305 319 326 325 324 312 320 327 315 298 295 294 293 287 287 289 286 284 283 283 286 286
3 5 6 6 2 1 351 345 347 340 340 353 351 333 327 328 331 330 326 319 319 318 318 323 328 316 309 305 311 308 290 287 286 281 277 275 277 278 277 277 281 283 282 282
352 355 353 353 356 351 348 348 343 341 348 349 344 336 331 328 327 323 311 296 312 323 327 319 313 305 308 317 323 305 291 286 284 284 278 272 270 272 274 276 276 279 279 277
349 357 357 350 341 334 342 346 343 344 340 334 330 325 320 317 320 319 316 320 318 321 325 316 311 313 317 327 323 302 293 286 279 276 277 277 274 273 274 276 275 275 273 273
356 355 345 340 351 354 342 337 339 337 326 319 321 320 318 317 315 308 300 316 324 323 324 320 321 320 324 332 311 290 282 280 276 273 272 273 272 271 270 272 275 276 272 270
352 346 347 349 345 328 322 328 336 338 337 332 329 326 316 305 301 308 313 317 321 324 323 324 324 324 327 314 297 286 282 276 273 273 267 271 272 271 270 270 271 274 275 273
343 331 326 324 322 325 329 333 331 332 332 329 326 324 318 315 312 312 314 315 314 319 321 316 315 318 316 306 297 292 287 291 295 290 280 276 273 271 271 272 272 272 273 272
343 343 345 344 343 338 332 329 325 323 323 317 314 318 323 323 321 319 317 318 317 316 314 312 310 307 304 300 297 293 289 286 283 282 282 278 275 272 272 271 272 272 272 271